DELTA 1 DEB, 9702

Orbit data source: Space-Track

DELTA 1 DEB, 9702 is space debris in LEO originally from a launch on Tue, 06 Nov 1973 UTC launched from the Air Force Western Test Range (AFWTR). Debris objects in space refer to the collection of defunct objects orbiting the Earth. Examples of debris include non-operational satellites, rocket bodies, and fragments generated from explosions, collisions, or faulty payload assembly.

Loading next visibility...
Identifier
9702, 1973-086GA
Orbit
LEO
Country
Flag of USUS
Related business
Manufacturer
Unknown
Mission
Spacecraft
Bus & Motor
Unknown
Mass
Unknown
Launch date (UTC)
1973-11-06 (53 years ago)
Launch vehicle
Unknown
Launch site
Air Force Western Test Range (AFWTR)
Object type
Payload
Rocket body
Debris
Shape & HBR
Unknown shape, 1.1 m
Radar Cross Section
Medium (>0.1 m² and <1 m²)

Expand to show TLE details & history
Last TLE update: 2 days ago

TLE from 2 days ago
0 DELTA 1 DEB
1  9702U 73086GA  26208.28212044  .00004711  00000-0  66908-1 0  9996
2  9702 103.0659 136.3214 0688750 167.8317 347.6152 11.42856085195161
Epoch: 2026-07-27T06:46Z
TLE epoch observation values (Epoch: 2026-07-27T06:46:15.206Z)
Latitude
25.70071°
Longitude
-83.82911°
Altitude
1,391.83 km
Speed
7.402 km/s
True Right ascension
21h 30m 48s
True Declination
25° 34' 39"
Sunlit
Object was in full shadow at epoch
Visualization orbit readout
Latitude
Unknown
Longitude
Unknown
Altitude
Unknown
Speed
Unknown
Apparent Right ascension
Unknown
Apparent Declination
Unknown
Sunlit
N/A
Visualization observer readout
Local Sidereal Time
10:25:40
Azimuth
Unknown
Elevation
Unknown
Doppler factor
Unknown
Orbital elements
Apogee altitude
2,518.319 km
Perigee altitude
1,371.798 km
Semi-major axis
8,323.196 km
Eccentricity
0.06888
Inclination
103.0659°
RAAN
136.3214°
Arg. of periapsis
167.8317°
True anomaly
345.768°
Mean anomaly
347.6152°
Eccentric anomaly
346.7079°
Mean motion
2.8583 °/min
Orbital period
125.95 mins
BSTAR
0.066908
Loading maneuver chart data...
Computing Atmospheric mass density...
Loading historical data...
Loading historical data...
Loading historical data...
Loading historical data...
Loading historical data...
Loading historical data...
Loading historical data...

Documentation

Showing up to 5 results
|